Regional Weather Roundup
Issued by NWS

Home | Current Version | Previous Version | Graphics & Text | Print | Product List | Glossary On
Versions: 1 2 3 4 5 6 7 8 9 10 11 12 13 14 15 16 17 18 19 20 21 22 23 24 25 26 27 28 29 30 31 32 33 34 35 36 37 38 39 40 41 42 43 44 45 46 47 48 49 50
738
ASUS43 KLMK 021310
RWRKY
KENTUCKY REGIONAL WEATHER ROUNDUP
NATIONAL WEATHER SERVICE LOUISVILLE KY
800 AM EST FRI DEC 02 2016

NOTE "FAIR" INDICATES FEW OR NO CLOUDS BELOW 12,000 FEET
WITH NO SIGNIFICANT WEATHER AND/OR OBSTRUCTIONS TO VISIBILITY.

KYZ001>023-026-027-061>063-070>075-021400-
WESTERN AND SOUTH CENTRAL KENTUCKY

CITY           SKY/WX    TMP DP  RH WIND       PRES   REMARKS
PADUCAH        PTCLDY    26  23  88 CALM      30.22R FOG
HENDERSON      CLEAR     25  19  80 SW3       30.21R
OWENSBORO      CLEAR     27  25  92 CALM      30.21R
HOPKINSVILLE   PTCLDY    30  26  85 CALM      30.21S
BOWLING GREEN  CLEAR     30  26  85 CALM      30.23R
GLASGOW        CLEAR    N/A N/A N/A CALM      30.22R
$$

KYZ024-025-028>034-038-045-046-053-021400-
NORTH CENTRAL KENTUCKY

CITY           SKY/WX    TMP DP  RH WIND       PRES   REMARKS
LOUISVILLE/SDF PTCLDY    32  27  81 CALM      30.20R
LOUISVILLE/LOU PTCLDY    31  26  82 CALM      30.21R
FORT KNOX      CLEAR     25  24  96 CALM      30.18R
$$

KYZ035>037-039>044-047>052-055>060-089>105-021400-
NORTHEAST KENTUCKY

CITY           SKY/WX    TMP DP  RH WIND       PRES   REMARKS
LEXINGTON      CLEAR     29  25  85 SW3       30.18R
COVINGTON      CLOUDY    36  29  75 NW12      30.15R WCI  28
FRANKFORT      CLEAR     29  25  85 W3        30.18R
$$

KYZ054-064>069-076>088-106>120-021400-
SOUTHEAST KENTUCKY

CITY           SKY/WX    TMP DP  RH WIND       PRES   REMARKS
JACKSON        CLEAR     30  26  85 SW3       30.17R
LONDON         CLEAR     27  24  89 CALM      30.19R
SOMERSET       CLEAR     27  27 100 CALM      30.22R
MIDDLESBORO    FOG       28  28 100 CALM      30.23R VSB<1/4
MONTICELLO     SUNNY     22  20  92 MISG      30.23R
$$





USA.gov is the U.S. government's official web portal to all federal, state and local government web resources and services.